Location: Audinghen
(50.8518°N, 1.6129°E)
Time: 08:24:49
(UTC+00:00)

NPP - Pass Details

Date: 07 August 2020
Orbit: 826 x 827 km, 98.7° (Epoch: 26 September)

Event Time Altitude Azimuth Distance (km) Brightness Sun altitude
Rises 02:08:00 0° 13° (NNE) 3,381 8.2 -17.2°
Reaches altitude 10° 02:10:22 10° 12° (NNE) 2,443 7.2 -17.0°
Maximum altitude 02:15:45 73° 289° (WNW) 868 3.7 -16.5°
Enters shadow 02:18:52 26° 210° (SSW) 1,579 4.5 -16.2°
